Weather History for Martha's Vineyard, MA

Change the Weather History Date:

Monday, February 11, 2013

  Actual Average Record
Temperature  
Mean Temperature 29 °F -  
Max Temperature 46 °F 38 °F 59 °F (1997)
Min Temperature 12 °F 18 °F -1 °F (1979)
Degree Days  
Heating Degree Days 36    
Moisture  
Dew Point 38 °F    
Average Humidity 95    
Maximum Humidity 100    
Minimum Humidity 82    
Precipitation  
Precipitation 0.25 in - - ()
Sea Level Pressure  
Sea Level Pressure 29.91 in    
Wind  
Wind Speed 9 mph (SSW)    
Max Wind Speed 24 mph    
Max Gust Speed 31 mph    
Visibility 4 miles    
Events Fog , Rain    
Averages and records for this station are not official NWS values.
T = Trace of Precipitation, MM = Missing Value Source: NWS Daily Summary

Daily Weather History Graph

Daily Weather History Graph

Search for Another Location

Airport:

Trip Planner

Search our weather history database for the weather conditions in past years. The results will help you decide how hot, cold, wet, or windy it might be!

Date:

Astronomy

Feb. 11, 2013 Rise Set
Actual Time 6:42 AM EST 5:11 PM EST
Civil Twilight 6:13 AM EST 5:40 PM EST
Nautical Twilight 5:41 AM EST 6:12 PM EST
Astronomical Twilight 5:09 AM EST 6:44 PM EST
Moon 7:03 AM EST (2/11) 7:06 PM EST (2/11)
Length of Visible Light 11h 26m
Length of Day
10h 29m
Waxing Crescent, 3% of the Moon is Illuminated
Feb 11
Waxing Crescent
Feb 17
First Quarter
Feb 25
Full
Mar 4
Last Quarter
Mar 11
New

Hourly Weather History & Observations

Time (EST) Temp. Windchill Dew Point Humidity Pressure Visibility Wind Dir Wind Speed Gust Speed Precip Events Conditions
12:53 AM 12.9 °F - 10.0 °F 88% 30.37 in 10.0 mi Calm Calm - N/A   Clear
1:53 AM 12.0 °F - 9.0 °F 88% 30.34 in 10.0 mi Calm Calm - N/A   Clear
2:53 AM 16.0 °F - 12.9 °F 88% 30.31 in 10.0 mi Calm Calm - N/A   Clear
3:53 AM 18.0 °F - 15.1 °F 88% 30.30 in 10.0 mi Calm Calm - N/A   Clear
4:53 AM 23.0 °F 18.4 °F 21.9 °F 96% 30.27 in 10.0 mi SE 3.5 mph - N/A   Clear
5:53 AM 25.0 °F - 24.1 °F 96% 30.28 in 10.0 mi Calm Calm - N/A   Scattered Clouds
6:53 AM 34.0 °F 26.6 °F 30.0 °F 85% 30.25 in 10.0 mi SSE 9.2 mph - N/A   Mostly Cloudy
7:53 AM 36.0 °F 28.0 °F 30.9 °F 82% 30.23 in 10.0 mi SSE 11.5 mph - N/A   Overcast
8:53 AM 37.0 °F 29.8 °F 33.1 °F 86% 30.20 in 10.0 mi South 10.4 mph - 0.00 in Rain Light Rain
9:53 AM 37.9 °F 28.9 °F 35.1 °F 89% 30.14 in 10.0 mi SSE 16.1 mph 23.0 mph 0.01 in Rain Light Rain
10:53 AM 39.0 °F 30.3 °F 37.0 °F 93% 30.08 in 9.0 mi SSE 16.1 mph - 0.03 in Rain Light Rain
11:53 AM 41.0 °F 31.4 °F 37.9 °F 89% 30.00 in 10.0 mi SSE 21.9 mph 28.8 mph 0.00 in   Overcast
12:08 PM 41.0 °F 31.9 °F 37.4 °F 87% 29.98 in 10.0 mi SSE 19.6 mph 27.6 mph N/A   Overcast
12:53 PM 42.1 °F 33.3 °F 39.9 °F 92% 29.94 in 5.0 mi South 19.6 mph 26.5 mph 0.01 in Rain Light Rain
1:17 PM 42.8 °F 34.0 °F 39.2 °F 87% 29.91 in 4.0 mi South 20.7 mph - 0.01 in Rain Light Rain
1:28 PM 42.8 °F 34.5 °F 41.0 °F 93% 29.90 in 2.5 mi South 18.4 mph - 0.02 in Rain Light Rain
1:39 PM 42.8 °F 34.8 °F 41.0 °F 93% 29.90 in 2.5 mi South 17.3 mph 26.5 mph 0.03 in Rain Rain
1:46 PM 42.8 °F 34.5 °F 41.0 °F 93% 29.89 in 2.5 mi South 18.4 mph 26.5 mph 0.03 in Rain Light Rain
1:48 PM 42.8 °F 34.5 °F 41.0 °F 93% 29.89 in 3.0 mi South 18.4 mph 28.8 mph 0.04 in Rain Light Rain
1:53 PM 42.1 °F 33.6 °F 42.1 °F 100% 29.89 in 3.0 mi South 18.4 mph 28.8 mph 0.04 in Rain Light Rain
2:10 PM 42.8 °F 35.1 °F 42.8 °F 100% 29.87 in 1.8 mi South 16.1 mph 24.2 mph 0.01 in Rain Light Rain
2:39 PM 42.8 °F 35.1 °F 42.8 °F 100% 29.85 in 0.8 mi South 16.1 mph 23.0 mph 0.03 in   Overcast
2:53 PM 42.1 °F 34.5 °F 42.1 °F 100% 29.84 in 0.5 mi South 15.0 mph - 0.04 in Fog , Rain Light Rain
3:07 PM 42.8 °F 35.4 °F 42.8 °F 100% 29.83 in 0.2 mi South 15.0 mph 23.0 mph 0.01 in Fog , Rain Light Rain
3:22 PM 44.6 °F 35.7 °F 44.6 °F 100% 29.81 in 0.5 mi South 24.2 mph 31.1 mph 0.03 in Fog Fog
3:39 PM 42.8 °F 35.4 °F 42.8 °F 100% 29.79 in 0.2 mi South 15.0 mph - 0.04 in Fog , Rain Light Rain
3:42 PM 42.8 °F - 42.8 °F 100% 29.79 in - North - - 0.04 in   Unknown
3:53 PM 43.0 °F - 43.0 °F 100% 29.79 in - North - - 0.04 in   Unknown
6:30 PM 44.6 °F 39.2 °F 44.6 °F 100% 29.73 in 0.8 mi SW 10.4 mph - N/A Rain Light Rain
6:43 PM 44.6 °F 39.7 °F 44.6 °F 100% 29.72 in 1.8 mi SW 9.2 mph - N/A Rain Light Rain
6:46 PM 46.4 °F 41.5 °F 46.4 °F 100% 29.72 in 2.5 mi SW 10.4 mph - N/A Rain Light Rain
6:53 PM 46.0 °F 40.6 °F 46.0 °F 100% 29.71 in 1.2 mi SW 11.5 mph - N/A Rain Light Rain
7:02 PM 44.6 °F 40.7 °F 44.6 °F 100% 29.71 in 0.5 mi WSW 6.9 mph - 0.01 in Fog Fog
7:27 PM 46.4 °F 41.9 °F 46.4 °F 100% 29.70 in 1.0 mi WSW 9.2 mph - 0.03 in   Overcast
7:53 PM 46.9 °F - 46.9 °F 100% 29.69 in 0.5 mi SW 10.4 mph 17.3 mph 0.04 in Fog Fog
8:28 PM 46.4 °F 42.4 °F 46.4 °F 100% 29.67 in 1.5 mi SW 8.1 mph - 0.02 in   Overcast
8:46 PM 44.6 °F 40.2 °F 44.6 °F 100% 29.67 in 0.5 mi SSW 8.1 mph - 0.03 in Fog Fog
8:53 PM 41.0 °F 35.8 °F 41.0 °F 100% 29.67 in 0.2 mi SSW 8.1 mph - 0.03 in Fog Fog
9:53 PM 43.0 °F 38.8 °F 43.0 °F 100% 29.65 in 0.2 mi SW 6.9 mph - 0.01 in Fog Fog
10:18 PM 44.6 °F 40.7 °F 44.6 °F 100% 29.64 in 0.5 mi SW 6.9 mph - N/A Fog Fog
10:53 PM 45.0 °F 41.8 °F 45.0 °F 100% 29.62 in 0.5 mi SW 5.8 mph - N/A Fog Fog
11:53 PM 46.0 °F 41.0 °F 46.0 °F 100% 29.62 in 1.2 mi West 10.4 mph - N/A   Overcast